[[{"header":{"parameterUnit":"m.s-1","parameterCategory":1,"la1":30.2991,"la2":30.254,"lo1":-89.0895,"lo2":-89.0444,"dy":0.0017,"dx":0.0017,"nx":28,"ny":28,"refTime":"2023-08-03T09:00:00:Z","depth":0,"parameterNumber":2,"parameterNumberName":"U-component_of_WINDS"},"data":[0,0,0,0,0,0,0,0,0,0,0,0,0,0,0,0,0,0,0,0,0,0,0,0,0,0,0,0,0,0,0,0,0,0,0,0,0,0,0,0,0,0,0,0,0,0,0,0,0,0,0,0,0,0,0,0,0,0,2.8382,2.8384,0,2.8518,2.8519,2.8521,2.8527,2.8526,2.8524,2.8523,2.8659,2.8664,2.867,0,0,0,0,0,0,0,0,0,0,0,0,0,2.8128,2.8132,2.8382,2.8384,2.8386,2.8518,2.8519,2.8521,2.8528,2.8526,2.8524,2.8522,2.8658,2.8664,2.867,0,0,0,0,0,0,0,0,0,0,0,0,0,2.8248,2.8134,2.8382,2.8405,2.8408,2.8517,2.8519,2.8522,2.8528,2.8526,2.8523,2.8521,2.8656,2.8663,2.8671,2.8766,0,0,2.8694,2.8698,0,0,0,0,0,0,0,0,2.8241,2.8257,2.84,2.8403,2.8407,2.8503,2.848,2.8603,2.8529,2.8483,2.8523,2.852,2.8609,2.8621,2.8651,2.8772,2.8778,2.8695,2.87,2.8703,2.8705,0,0,0,0,0,0,0,2.8233,2.8252,2.8436,2.8402,2.8407,2.8408,2.8422,2.8503,2.8557,2.8486,2.8487,2.8503,2.8611,2.8644,2.8654,2.878,2.8695,2.8702,2.8706,2.8709,2.8984,2.8987,0,0,0,0,0,0,2.822,2.8245,2.8432,2.844,2.8317,2.8414,2.8431,2.8475,2.8557,2.8567,2.8505,2.8503,2.8632,2.8645,2.8659,2.8774,2.8703,2.871,2.8714,2.8981,2.8985,2.8988,0,0,0,0,0,0,2.8215,2.8237,2.8426,2.8343,2.8367,2.8421,2.8471,2.8479,2.8512,2.8571,2.858,2.8529,2.8631,2.8648,2.8739,2.8779,2.8713,2.872,2.8978,2.8982,2.8986,2.9005,0,0,0,0,0,0,2.8208,2.8235,2.8272,2.8343,2.8371,2.8504,2.8474,2.8483,2.8525,2.8524,2.8595,2.8605,2.863,2.8727,2.8747,2.8788,2.8726,2.8975,2.898,2.8985,2.9001,2.9009,2.9016,0,0,0,0,0,2.8198,2.8272,2.8274,2.8296,2.8419,2.8506,2.8522,2.855,2.8528,2.8565,2.8603,2.8603,2.8772,2.8737,2.8758,2.8803,2.8972,2.8979,2.8984,2.8998,2.9008,2.9016,0,0,0,0,0,0,2.8202,2.8281,2.8284,2.8383,2.8438,2.8507,2.8554,2.856,2.8621,2.8617,2.8649,2.8665,2.8754,2.8788,2.8747,2.8898,2.887,2.888,2.8872,2.8882,2.889,2.8878,2.8733,0,0,0,0,0,2.8215,2.828,2.8346,2.8426,2.8454,2.85,2.8539,2.8556,2.8613,2.8636,2.8681,2.8737,2.8802,2.8845,2.8909,2.9007,2.9022,2.9049,2.9056,2.9062,2.907,2.9123,2.9135,2.9007,2.9007,2.9007,0,0,2.8241,2.8292,2.8331,2.8428,2.8473,2.8538,2.8519,2.859,2.8638,2.8647,2.8734,2.877,2.8834,2.8928,2.8972,2.8959,2.9109,2.907,2.9074,2.9079,2.913,2.9142,2.9153,2.9012,2.9011,2.901,0,0,2.8321,2.8368,2.8439,2.8484,2.8552,2.8583,2.86,2.8669,2.8692,2.8781,2.8789,2.8848,2.896,2.9005,2.9043,2.9142,2.9143,2.9162,2.92,2.9252,2.9262,2.9271,2.9304,2.9316,2.917,2.917,2.917,0,2.8344,2.8444,2.8475,2.8546,2.8587,2.86,2.8672,2.8714,2.8799,2.8827,2.8813,2.8954,2.8998,2.9103,2.9127,2.9158,2.9177,2.9152,2.9258,2.9268,2.9276,2.9308,2.9321,2.9172,2.9172,2.9172,2.9172,0,2.8468,2.8538,2.8588,2.867,2.8718,2.8789,2.8829,2.8874,2.8888,2.8919,2.9009,2.9063,2.9137,2.9164,2.9178,2.9271,2.926,2.9252,2.9223,2.929,2.932,2.9332,2.9174,2.9174,2.9173,2.9173,0,0,2.8552,2.8652,2.8669,2.8706,2.8783,2.8837,2.8909,2.8982,2.9019,2.9078,2.9137,2.9233,2.9226,2.9268,2.9288,2.9333,2.9405,2.9319,2.9321,2.9331,2.9509,2.9513,2.9526,2.9408,2.9411,2.9413,2.9503,0,2.8639,2.8766,2.8797,2.8906,2.8969,2.8983,2.9045,2.9099,2.9131,2.9189,2.9224,2.9291,2.9277,2.9303,2.9349,2.9387,2.9441,2.9381,2.9462,2.9464,2.9442,2.9543,2.9547,2.9629,2.9515,2.9517,2.9519,0,2.8756,2.8818,2.8933,2.9002,2.9029,2.9085,2.9154,2.9211,2.9272,2.9292,2.934,2.9355,2.9429,2.9399,2.9501,2.9459,2.9495,2.9519,2.9523,2.9529,2.9493,2.9549,2.9656,2.9668,2.9538,2.9536,2.9535,0,2.8802,2.8915,2.8998,2.903,2.9112,2.915,2.9186,2.9245,2.9287,2.9349,2.9376,2.9445,2.9482,2.9535,2.9567,2.9543,2.9666,2.9639,2.9683,2.9682,2.9705,2.9703,2.9817,2.9733,2.9733,2.9733,2.9732,0,2.8893,2.8963,2.902,2.9071,2.9149,2.9183,2.926,2.9296,2.9348,2.9406,2.9423,2.9476,2.9517,2.9576,2.9603,2.9682,2.9699,2.9716,2.9722,2.9713,2.9711,2.9734,2.9728,2.9736,2.9735,2.9735,2.9734,0,2.8956,2.8998,2.9089,2.916,2.918,2.9234,2.9294,2.9344,2.9377,2.945,2.9469,2.9521,2.9591,2.963,2.9719,2.9736,2.9824,2.9828,2.9803,2.9805,2.9846,2.984,2.9977,2.9996,2.9902,2.9903,2.9903,0,2.901,2.9064,2.9142,2.9182,2.9219,2.9283,2.9327,2.9363,2.9408,2.9481,2.9522,2.9594,2.9653,2.9765,2.981,2.9877,2.9881,2.9925,2.9891,2.9881,2.9879,2.9874,2.9879,2.9929,2.993,2.9931,2.9931,0,2.9101,2.9119,2.9181,2.9251,2.9303,2.9359,2.9415,2.9447,2.9493,2.9542,2.9614,2.966,2.9751,2.9821,2.9893,2.9929,2.9937,2.9942,2.9955,2.9945,2.9928,2.9935,2.9816,2.9938,2.9937,2.9937,2.9937,2.9936,2.916,2.9208,2.927,2.9338,2.9385,2.9437,2.9487,2.9527,2.9588,2.9665,2.9684,2.976,2.9819,2.9916,2.9955,3.0014,3.0006,3.0026,3.003,3.0034,3.0034,2.9921,3.0028,3.0028,3.0028,3.0028,3.0028,0,2.9249,2.929,2.9353,2.9431,2.9485,2.9491,2.9553,2.9597,2.9664,2.972,2.9778,2.9861,2.993,2.9981,3.0051,3.0089,3.0094,3.0106,3.0102,3.011,3.0039,3.0019,3.01,3.01,3.01,3.01,3.01,3.01,2.9301,2.9383,2.9408,2.9513,2.9553,2.9628,2.9663,2.9711,2.9755,2.9848,2.9905,2.9939,2.9993,3.0067,3.013,3.0143,3.0167,3.0177,3.0191,3.0123,3.0115,3.0107,3.0089,3.0183,3.0183,3.0256,3.0257,3.0257]},{"header":{"parameterUnit":"m.s-1","parameterCategory":1,"la1":30.2991,"la2":30.254,"lo1":-89.0895,"lo2":-89.0444,"dy":0.0017,"dx":0.0017,"nx":28,"ny":28,"refTime":"2023-08-03T09:00:00:Z","depth":0,"parameterNumber":3,"parameterNumberName":"V-component_of_WINDS"},"data":[0,0,0,0,0,0,0,0,0,0,0,0,0,0,0,0,0,0,0,0,0,0,0,0,0,0,0,0,0,0,0,0,0,0,0,0,0,0,0,0,0,0,0,0,0,0,0,0,0,0,0,0,0,0,0,0,0,0,5.5599,5.5599,0,5.5657,5.5658,5.5659,5.5609,5.5607,5.5605,5.5603,5.5654,5.5657,5.5661,0,0,0,0,0,0,0,0,0,0,0,0,0,5.5436,5.5439,5.5599,5.56,5.56,5.5657,5.5658,5.5659,5.5609,5.5607,5.5605,5.5602,5.5653,5.5657,5.5661,0,0,0,0,0,0,0,0,0,0,0,0,0,5.5502,5.544,5.5599,5.5583,5.5582,5.5657,5.5658,5.5659,5.561,5.5607,5.5604,5.5601,5.5652,5.5657,5.5661,5.5752,0,0,5.5676,5.5678,0,0,0,0,0,0,0,0,5.5498,5.5507,5.5584,5.5584,5.5583,5.5623,5.5619,5.569,5.5611,5.5599,5.5603,5.56,5.5646,5.5651,5.5668,5.5755,5.5757,5.5677,5.568,5.5682,5.5683,0,0,0,0,0,0,0,5.5493,5.5505,5.5622,5.5585,5.5585,5.557,5.5576,5.5632,5.5638,5.56,5.5596,5.5605,5.5645,5.5664,5.5669,5.5758,5.5677,5.5681,5.5684,5.5686,5.5922,5.5925,0,0,0,0,0,0,5.5492,5.5501,5.562,5.5623,5.5533,5.5575,5.5582,5.5613,5.5638,5.5639,5.5607,5.5602,5.5657,5.5663,5.5671,5.5779,5.5682,5.5686,5.5689,5.5918,5.5922,5.5926,0,0,0,0,0,0,5.5488,5.5503,5.5617,5.5562,5.5575,5.5582,5.5617,5.5616,5.5635,5.5643,5.5643,5.5626,5.5655,5.5664,5.5733,5.578,5.5688,5.5693,5.5914,5.592,5.5924,5.5996,0,0,0,0,0,0,5.5484,5.5502,5.5538,5.5563,5.5578,5.5681,5.562,5.5619,5.5645,5.5638,5.5661,5.5662,5.5653,5.5726,5.5738,5.5785,5.5697,5.591,5.5917,5.5923,5.5989,5.6003,5.6014,0,0,0,0,0,5.5478,5.5554,5.5541,5.5555,5.5625,5.5684,5.5693,5.5684,5.5649,5.5684,5.5689,5.5661,5.5773,5.5734,5.5746,5.5795,5.5907,5.5915,5.5922,5.5984,5.6,5.6014,0,0,0,0,0,0,5.5531,5.5557,5.5542,5.5629,5.5655,5.5676,5.572,5.5701,5.5736,5.5728,5.5713,5.5718,5.5791,5.58,5.5756,5.5885,5.5834,5.5844,5.5876,5.5892,5.5904,5.59,5.5701,0,0,0,0,0,5.5554,5.5603,5.5622,5.5696,5.5711,5.5714,5.5739,5.573,5.5756,5.5765,5.5776,5.5799,5.584,5.5866,5.5904,5.5991,5.5994,5.6031,5.6043,5.6053,5.6062,5.6108,5.6124,5.5951,5.5951,5.595,0,0,5.5599,5.5619,5.565,5.5707,5.5727,5.5776,5.5723,5.5776,5.5812,5.5772,5.5839,5.5848,5.5873,5.5952,5.5986,5.5961,5.6111,5.6063,5.6071,5.6074,5.6117,5.6134,5.6148,5.5956,5.5955,5.5954,0,0,5.5706,5.5728,5.5792,5.5814,5.5845,5.5847,5.5863,5.5887,5.5892,5.596,5.5932,5.5972,5.6043,5.6062,5.608,5.6198,5.6172,5.621,5.6274,5.6319,5.6333,5.6345,5.6386,5.6401,5.6219,5.6219,5.6219,0,5.5757,5.5833,5.5827,5.5884,5.5909,5.588,5.5943,5.5963,5.6004,5.6021,5.5993,5.6081,5.6096,5.6178,5.6207,5.6224,5.6239,5.6207,5.6332,5.6344,5.6355,5.6394,5.6409,5.6223,5.6223,5.6223,5.6222,0,5.5894,5.5947,5.5995,5.604,5.607,5.613,5.613,5.6161,5.6151,5.6155,5.6223,5.624,5.6281,5.63,5.6288,5.6381,5.6365,5.6335,5.6283,5.6376,5.6412,5.6427,5.623,5.6228,5.6227,5.6226,0,0,5.6034,5.6077,5.6094,5.6115,5.6148,5.6187,5.6245,5.6289,5.6315,5.6345,5.6392,5.6453,5.6426,5.6448,5.6438,5.6478,5.6569,5.6443,5.6443,5.6465,5.6671,5.6693,5.671,5.6553,5.6556,5.6558,5.6669,0,5.6143,5.6248,5.6244,5.6341,5.6389,5.6363,5.6413,5.6437,5.6443,5.6483,5.6487,5.6531,5.6493,5.6506,5.6544,5.655,5.661,5.6542,5.6594,5.6596,5.6588,5.6729,5.6752,5.6855,5.6683,5.6685,5.6687,0,5.6283,5.6321,5.6424,5.6452,5.6471,5.6517,5.6557,5.6596,5.6623,5.6624,5.665,5.6634,5.669,5.6639,5.6716,5.667,5.6691,5.6697,5.6701,5.6704,5.6646,5.6735,5.6888,5.6903,5.6709,5.6707,5.6706,0,5.6374,5.6451,5.6522,5.654,5.6575,5.6607,5.6622,5.6647,5.6674,5.6707,5.6724,5.6763,5.6784,5.6813,5.6808,5.6771,5.6886,5.6834,5.6886,5.6886,5.691,5.6908,5.7068,5.6926,5.6926,5.6925,5.6925,0,5.6494,5.6557,5.6564,5.6607,5.6677,5.6672,5.674,5.6751,5.6774,5.6817,5.6796,5.6837,5.6828,5.6868,5.6863,5.6927,5.6937,5.6938,5.6935,5.6939,5.6939,5.6951,5.6944,5.693,5.6929,5.6928,5.6927,0,5.6606,5.6613,5.669,5.6718,5.6726,5.6776,5.6798,5.6839,5.6844,5.6899,5.6912,5.6919,5.6965,5.6963,5.7014,5.7011,5.7089,5.7079,5.7081,5.7079,5.7131,5.7126,5.7303,5.7326,5.717,5.7172,5.7173,0,5.6682,5.6731,5.6766,5.6795,5.6814,5.6861,5.6889,5.6886,5.6916,5.6952,5.6987,5.7032,5.7068,5.7142,5.7149,5.7188,5.7178,5.7238,5.7184,5.7186,5.7178,5.7175,5.718,5.7248,5.725,5.7251,5.7252,0,5.6815,5.6817,5.6861,5.6907,5.6942,5.6976,5.7008,5.7032,5.7032,5.7066,5.7115,5.7143,5.7198,5.7242,5.728,5.7292,5.7272,5.727,5.7284,5.7287,5.7286,5.7287,5.7109,5.7265,5.7264,5.7263,5.7262,5.7262,5.6911,5.6953,5.6986,5.7035,5.7059,5.709,5.713,5.7142,5.7184,5.723,5.7225,5.7279,5.7304,5.7354,5.737,5.7411,5.7389,5.741,5.7415,5.742,5.7426,5.7281,5.7418,5.7417,5.7417,5.7417,5.7416,0,5.7042,5.7063,5.7109,5.7156,5.7194,5.7177,5.7211,5.7243,5.7293,5.732,5.7357,5.7413,5.7456,5.7469,5.751,5.754,5.7532,5.7551,5.7548,5.7551,5.7443,5.7426,5.7557,5.7557,5.7557,5.7557,5.7557,5.7557,5.7115,5.7187,5.7193,5.7276,5.7294,5.735,5.7372,5.7399,5.7421,5.7486,5.7524,5.7533,5.7554,5.7597,5.7636,5.7638,5.7653,5.7676,5.7675,5.7573,5.7559,5.7545,5.7529,5.768,5.768,5.778,5.7781,5.7781]}]]